星链-36383(STARLINK-36383)

导读 | 豆包AI

STARLINK-36383是美国SpaceX公司于2026年2月20日发射的Starlink星链互联网星座卫星,部署于近地轨道,属于星链大规模星座组网计划的组成部分。作为全球低轨卫星互联网项目的一员,它将与其他星链卫星协同,为全球偏远、欠发达地区提供高速低延迟宽带互联网接入服务,填补地面网络覆盖盲区,助力全球互联互通。

基本信息
目录编号:
67870
目录名称:
STARLINK-36770
国际标识:
2026-034W
轨道中心:
EARTH
卫星名称:
星链-36383
卫星全名:
星链-36383(STARLINK-36383)
卫星状态:
在轨 (已飞行94 天)
发射日期:
2026-02-20 UTC
国别 :
美国 (US)
星等 :
--
轨道信息
数据来源 国际轨道数据
星历时间: 2026-05-24T12:04:20+0800
1天前
查看轨道信息
半长轴: 6853.359km
偏心率: 0.0001113
轨道倾角: 53.157°
近地点辐角 87.767°
升交点赤经 213.528°
平近点角 272.346°
近地点: 474.459km
远地点: 475.985km
周期: 94.105分钟
每日圈数: 15.301977
详细信息
固有亮度:
5
最大亮度:
2.5
卫星平台:
Starlink V1.0
覆盖范围:
全球
运营商:
太空探索技术公司
运营商所在国:
美国
制造商(研发单位):
太空探索技术公司
制造商所在国:
美国
使用方式:
暂无
卫星简介
Starlink 计划是 SpaceX 推出的全球卫星互联网项目,通过发射低轨道卫星,为全球尤其是偏远地区提供高速、低延迟的互联网服务。自 2019 年起,Starlink 已部署数千颗卫星,旨在缩小全球数字鸿沟,推动互联网普及。该项目还为军事、航空等行业提供通信支持,带来广泛经济效益。
2D轨道图
3D轨道图
轨道高度分析图
轨道倾角分析图
轨道综合分析图
查看轨道综合分析图